sat.trackr.live / text

‹ back to catalog

STARLINK-36115

NORAD 66946 · 2025-286X

PAYLOAD ACTIVE UNKNOWN

§ Identity

Operator
Country
US
Launch date
2025-12-07
Launch site
AFWTR
Launch vehicle
Mass (kg)
RCS (m²)

Purposes: comms

External: N2YO · Heavens-Above · Gunter

§ Orbital elements

Epoch: 2026-05-24T22:15:59.379840Z

Period
93.85 min
Inclination
53.1625°
Eccentricity
0.0001138
Mean motion
15.34401710 rev/d
Perigee alt
461.9 km
Apogee alt
463.5 km
Semi-major
6,840.8 km
B*
6.0075e-4
RAAN
4.0116°
Arg perigee
89.1503°
Mean anomaly
270.9630°
Rev number
2,709

§ Raw data

STARLINK-361151 66946U 25286X   26144.92777060  .00019976  00000+0  60075-3 0  99912 66946  53.1625   4.0116 0001138  89.1503 270.9630 15.34401710 27097

JSON: /api/v1/satellites/66946 · /tle

For live sub-satellite position, see the globe view (requires WebGL).

§ Visibility from observer

Set your observer location to see the next 7 days of passes ≥ 10°. The values pass through the URL so the page stays shareable.

No JS? Fill the form by hand. The geolocation button needs JavaScript.